Weather History for Jacksonville Craig, FL

Change the Weather History Date:

Sunday, August 4, 2013

  Actual Average Record
Temperature  
Mean Temperature 88 °F -  
Max Temperature 96 °F 87 °F 98 °F (2006)
Min Temperature 80 °F 71 °F 71 °F (1998)
Cooling Degree Days 23    
Growing Degree Days 38 (Base 50)    
Moisture  
Dew Point 74 °F    
Average Humidity 69    
Maximum Humidity 84    
Minimum Humidity 44    
Precipitation  
Precipitation 0.00 in - - ()
Sea Level Pressure  
Sea Level Pressure 30.00 in    
Wind  
Wind Speed 6 mph (West)    
Max Wind Speed 12 mph    
Max Gust Speed -    
Visibility 10 miles    
Events      
Averages and records for this station are not official NWS values.
T = Trace of Precipitation, MM = Missing Value Source: NWS Daily Summary

Daily Weather History Graph

Daily Weather History Graph

Search for Another Location

Airport:

Trip Planner

Search our weather history database for the weather conditions in past years. The results will help you decide how hot, cold, wet, or windy it might be!

Date:

Astronomy

Aug. 04, 2013 Rise Set
Actual Time 6:46 AM EDT 8:17 PM EDT
Civil Twilight 6:20 AM EDT 8:43 PM EDT
Nautical Twilight 5:49 AM EDT 9:14 PM EDT
Astronomical Twilight 5:17 AM EDT 9:46 PM EDT
Moon 4:47 AM EDT (8/4) 6:39 PM EDT (8/4)
Length of Visible Light 14h 22m
Length of Day
13h 30m
Waning Crescent, 5% of the Moon is Illuminated
Aug 4
Waning Crescent
Aug 6
New
Aug 14
First Quarter
Aug 20
Full
Aug 28
Last Quarter

Hourly Weather History & Observations

Time (EDT) Temp. Heat Index Dew Point Humidity Pressure Visibility Wind Dir Wind Speed Gust Speed Precip Events Conditions
12:53 AM 81.0 °F 86.7 °F 75.0 °F 82% 30.05 in 10.0 mi West 3.5 mph - N/A   Scattered Clouds
1:53 AM 81.0 °F 86.7 °F 75.0 °F 82% 30.03 in 10.0 mi West 6.9 mph - N/A   Mostly Cloudy
2:53 AM 81.0 °F 86.7 °F 75.0 °F 82% 30.02 in 10.0 mi West 5.8 mph - N/A   Clear
3:53 AM 81.0 °F 86.7 °F 75.0 °F 82% 30.01 in 10.0 mi West 6.9 mph - N/A   Clear
4:53 AM 81.0 °F 86.7 °F 75.0 °F 82% 30.00 in 10.0 mi West 6.9 mph - N/A   Clear
5:53 AM 81.0 °F 86.7 °F 75.0 °F 82% 30.01 in 10.0 mi West 9.2 mph - N/A   Clear
6:53 AM 80.1 °F 84.5 °F 73.9 °F 81% 30.02 in 10.0 mi West 4.6 mph - N/A   Clear
7:24 AM 80.6 °F 86.2 °F 75.2 °F 84% 30.03 in 10.0 mi West 5.8 mph - N/A   Partly Cloudy
7:53 AM 81.0 °F 86.7 °F 75.0 °F 82% 30.03 in 10.0 mi West 5.8 mph - N/A   Clear
8:53 AM 82.9 °F 90.2 °F 75.0 °F 77% 30.04 in 10.0 mi West 6.9 mph - N/A   Partly Cloudy
9:53 AM 84.9 °F 93.3 °F 75.0 °F 72% 30.05 in 10.0 mi West 5.8 mph - N/A   Partly Cloudy
10:53 AM 86.0 °F 95.1 °F 75.0 °F 70% 30.05 in 10.0 mi WSW 6.9 mph - N/A   Partly Cloudy
11:53 AM 89.1 °F 98.0 °F 73.9 °F 61% 30.04 in 10.0 mi WSW 5.8 mph - N/A   Scattered Clouds
12:53 PM 91.0 °F 97.6 °F 71.1 °F 52% 30.02 in 10.0 mi NW 10.4 mph - N/A   Scattered Clouds
1:53 PM 93.0 °F 100.7 °F 72.0 °F 50% 30.00 in 10.0 mi North 9.2 mph - N/A   Scattered Clouds
2:53 PM 93.9 °F 100.8 °F 71.1 °F 47% 29.97 in 10.0 mi North 11.5 mph - N/A   Clear
3:53 PM 95.0 °F 102.5 °F 71.1 °F 46% 29.96 in 10.0 mi NNW 5.8 mph - N/A   Clear
4:53 PM 96.1 °F 103.5 °F 71.1 °F 44% 29.96 in 10.0 mi North 4.6 mph - N/A   Clear
5:53 PM 90.0 °F 100.2 °F 75.0 °F 61% 29.94 in 10.0 mi SE 6.9 mph - N/A   Mostly Cloudy
6:53 PM 89.1 °F 100.2 °F 75.9 °F 65% 29.94 in 10.0 mi South 3.5 mph - N/A   Clear
7:53 PM 88.0 °F 98.5 °F 75.9 °F 67% 29.95 in 10.0 mi Calm Calm - N/A   Clear
8:53 PM 86.0 °F 96.9 °F 77.0 °F 74% 29.97 in 10.0 mi Calm Calm - N/A   Scattered Clouds
9:53 PM 86.0 °F 96.9 °F 77.0 °F 74% 29.98 in 10.0 mi South 3.5 mph - N/A   Clear
10:53 PM 87.1 °F 96.3 °F 75.0 °F 67% 29.99 in 10.0 mi West 4.6 mph - N/A   Clear
11:53 PM 86.0 °F 95.1 °F 75.0 °F 70% 30.00 in 10.0 mi WSW 5.8 mph - N/A   Partly Cloudy